Probability
0 0 0 0 0 0 0 0 0 0 0 0 0 0 0 1 1 1 2 4 6 5 2 2 3 2 1 2 2 1 0 0 0 0 0 1 1 1 1 0 1 1 1 1 1 2 3 4 5
0 0 0 0 0 0 0 0 0 0 0 0 0 0 1 2 2 3 3 4 5 5 2 1 3 2 1 1 2 1 0 0 0 0 1 2 1 1 1 1 1 1 2 2 1 1 2 3 4
0 0 0 0 0 0 0 0 0 0 0 0 0 1 2 3 3 4 5 4 4 3 1 1 3 3 2 1 1 1 0 0 0 0 1 2 2 1 1 1 2 1 1 2 2 2 1 3 4
0 0 0 0 0 0 0 0 0 0 0 0 0 1 3 3 3 4 5 6 4 1 1 2 4 4 3 2 0 0 0 0 0 0 1 1 1 1 1 1 2 1 1 2 3 3 1 2 3
0 0 0 0 0 0 0 0 0 0 0 0 1 2 3 3 3 4 5 6 5 2 2 2 4 5 4 2 0 0 0 0 0 0 0 0 0 0 1 1 2 2 2 2 2 2 1 1 2
0 0 0 0 0 0 0 0 0 0 0 0 1 2 3 3 4 5 6 6 4 3 3 3 3 4 3 2 0 0 1 0 0 0 0 0 0 0 1 2 3 3 3 3 1 0 0 0 1
0 0 0 0 0 0 0 0 0 0 0 0 1 2 3 4 5 6 6 5 3 2 2 3 2 2 2 1 0 0 0 0 0 0 0 0 0 0 1 2 3 3 3 2 1 0 0 0 0
0 0 0 0 0 0 0 0 0 0 0 0 0 2 4 6 7 7 6 4 1 1 2 3 2 1 1 1 1 0 0 0 0 0 0 0 0 0 1 2 3 3 3 2 1 0 0 0 0
0 0 0 0 0 0 0 0 0 0 0 0 1 3 5 8 8 6 5 3 1 1 3 3 1 0 1 2 2 1 1 0 0 0 0 0 0 0 1 2 3 3 2 1 0 0 0 0 0
0 0 0 0 0 0 0 0 0 0 0 0 1 3 6 7 7 6 4 2 1 1 2 2 1 1 2 3 3 3 3 1 1 0 0 0 0 0 0 1 2 2 1 0 0 0 0 0 0
0 0 0 0 0 0 0 0 0 0 0 0 1 3 5 5 6 5 3 1 0 1 1 1 2 3 5 6 6 5 4 3 2 1 1 1 1 2 1 1 1 1 0 0 0 0 0 0 0
0 0 0 0 0 0 0 0 0 0 0 0 1 3 3 3 3 3 1 0 0 0 0 1 3 5 7 8 8 6 5 5 4 3 2 3 3 3 3 2 2 1 0 0 0 0 0 0 0
0 0 0 0 0 0 0 0 0 0 0 0 1 2 3 3 2 1 0 0 0 0 0 1 3 5 7 9 9 7 6 6 4 3 3 4 5 5 4 3 2 1 0 0 0 0 0 0 0
0 0 0 0 0 0 0 0 0 0 0 0 0 1 2 2 1 0 1 1 1 0 0 1 3 5 7 8 9 8 6 5 3 2 2 3 5 6 4 3 1 0 0 0 0 0 0 0 0
0 0 0 0 0 0 0 0 0 0 0 0 0 0 1 1 1 0 1 1 1 0 1 3 4 5 5 5 7 7 5 4 4 3 1 2 4 5 4 3 1 0 0 0 0 0 0 0 0
0 0 0 0 0 0 0 0 0 0 0 0 0 0 0 0 0 0 0 0 0 1 2 4 4 4 3 3 4 5 5 5 5 3 1 0 2 2 2 2 2 1 1 1 0 0 0 0 0
0 0 0 0 0 0 0 0 0 0 0 0 0 0 0 0 0 0 0 0 0 1 3 4 3 2 1 1 1 3 5 6 6 4 1 0 0 0 0 1 2 2 2 2 1 0 0 0 0
0 0 0 0 0 0 0 0 0 0 0 0 0 0 0 0 0 0 0 0 0 1 2 3 3 2 1 1 2 2 5 6 6 4 2 0 0 0 0 0 1 2 3 2 1 0 0 0 0
0 0 0 0 0 0 0 0 0 0 0 0 0 0 0 0 0 0 0 0 0 0 1 2 3 3 3 3 3 3 4 5 4 4 2 1 0 0 0 0 0 1 3 2 1 0 0 0 0
0 0 0 0 0 0 0 0 0 0 0 0 0 0 0 0 0 0 0 0 0 0 0 1 1 2 3 3 3 3 3 4 3 3 3 1 0 0 0 0 0 1 2 2 1 1 0 0 0
0 0 0 0 0 0 0 0 0 0 0 0 0 0 0 0 0 0 0 0 0 0 0 0 0 1 2 3 3 3 3 3 3 3 3 2 1 0 0 0 0 0 1 2 2 2 1 0 0
0 0 0 0 0 0 0 0 0 0 0 0 0 0 0 0 0 0 0 0 0 0 0 0 0 0 1 2 3 3 3 3 3 3 3 2 1 0 0 0 0 0 0 1 2 2 2 1 0
0 0 0 0 0 0 0 0 0 0 0 0 0 0 0 0 0 0 0 0 0 0 0 0 0 0 0 1 2 2 3 3 3 3 3 3 1 0 0 0 0 0 0 0 1 1 1 1 0
0 0 0 0 0 0 0 0 0 0 0 0 0 0 0 0 0 0 0 0 0 0 0 0 0 0 0 0 1 1 1 2 3 3 3 3 2 1 0 0 0 0 0 0 0 0 0 0 0
0 0 0 0 0 0 0 0 0 0 0 0 0 0 0 0 0 0 0 0 0 0 0 0 0 0 0 0 0 0 0 1 2 3 3 3 2 1 0 0 0 0 0 0 0 0 0 0 0
0 0 0 0 0 0 0 0 0 0 0 0 0 0 0 0 0 0 0 0 0 0 0 0 0 0 0 0 0 0 0 0 1 1 2 3 2 1 0 0 1 1 1 0 0 0 1 1 1
0 0 0 0 0 0 0 0 0 0 0 0 0 0 0 0 0 0 0 0 0 0 0 0 0 0 0 0 0 0 0 0 0 0 1 2 2 1 0 1 2 2 2 1 0 0 1 2 3
0 0 0 0 0 0 0 0 0 0 0 0 0 0 0 0 0 0 0 0 0 0 0 0 0 0 0 0 0 0 0 0 0 0 0 1 1 0 0 1 2 3 3 2 1 0 1 2 2
0 0 0 0 0 0 0 0 0 0 0 0 0 0 0 0 0 0 0 0 0 0 0 0 0 0 0 0 0 0 0 0 0 0 0 0 0 0 0 1 2 3 3 2 1 0 0 1 1
0 0 0 0 0 0 0 0 0 0 0 0 0 0 0 0 0 0 0 0 0 0 0 0 0 0 0 0 0 0 0 0 0 0 0 0 0 0 0 1 2 3 3 2 1 0 0 0 0
Wind_Speed
13 10 6 3 3 4 6 3 1 3 3 4 4 4 5 6 5 5 3 5 6 6 7 6 5 6 6 6 6 6 6 5 6 5 5 6 5 6 6 7 7 7 7 8 9 9 10 11 11
10 7 4 4 4 5 4 1 3 4 5 3 1 1 2 5 5 6 4 4 5 6 6 6 5 6 6 6 5 5 5 5 5 5 5 5 5 5 6 6 6 7 7 8 9 10 10 10 10
9 6 4 3 4 5 1 3 5 5 5 1 1 2 3 4 5 4 3 3 4 5 5 6 5 6 6 5 5 5 4 4 5 5 5 5 5 5 6 6 6 7 7 8 9 9 9 10 10
5 4 4 4 7 4 2 3 4 2 3 1 0 3 4 5 4 4 4 3 4 5 5 6 5 5 6 5 5 4 4 4 4 4 4 5 5 5 5 6 6 7 7 8 9 9 9 9 9
4 3 4 5 7 3 1 3 3 1 1 1 1 2 4 4 6 5 3 2 3 4 5 6 5 5 5 5 4 4 4 3 4 4 4 4 5 5 5 5 6 7 7 8 8 8 8 8 8
3 3 4 5 5 2 2 3 0 1 0 1 1 0 3 4 5 3 2 2 3 4 5 5 5 5 4 4 4 4 4 4 4 4 4 4 5 5 5 6 6 7 7 8 7 8 8 7 7
3 3 5 6 4 2 1 2 2 1 1 1 2 0 4 4 4 3 2 3 3 3 4 4 3 3 4 4 4 4 4 4 4 4 5 5 5 5 5 5 6 7 7 7 7 7 7 7 6
4 3 5 5 4 2 2 2 2 3 2 2 2 1 3 3 3 2 2 2 3 3 3 2 2 2 3 3 4 4 4 4 4 4 4 4 4 5 5 4 5 6 7 7 7 7 6 6 6
4 3 4 4 3 1 2 1 2 3 1 1 1 3 4 4 3 2 2 1 2 2 2 1 1 1 2 3 4 4 3 4 4 3 3 3 2 3 3 5 5 5 6 6 6 6 6 5 3
2 3 4 4 5 3 2 2 2 2 3 2 1 2 4 3 3 2 1 1 1 1 1 1 1 1 1 2 3 3 3 3 2 2 2 1 1 2 4 5 6 5 5 5 5 4 3 2 1
2 3 3 4 5 4 3 3 3 3 4 3 1 0 2 2 2 2 2 2 1 1 1 1 0 0 1 1 2 2 2 2 2 2 2 2 2 2 3 2 3 3 3 2 2 2 1 1 1
3 3 3 3 4 3 3 3 4 4 4 4 1 1 2 2 3 3 2 2 1 1 1 1 1 1 1 1 1 2 2 2 2 2 2 2 2 2 2 2 2 2 1 1 1 1 2 2 2
4 3 3 2 2 3 4 5 5 6 3 3 1 1 2 3 3 2 1 1 1 1 1 0 1 1 1 1 0 1 2 2 2 2 2 1 2 2 2 2 2 2 1 1 1 1 1 2 2
2 2 3 4 3 2 4 6 5 6 3 2 2 3 3 3 2 1 1 1 1 1 1 0 0 0 1 1 1 1 1 2 2 2 2 1 1 2 2 2 2 1 1 1 1 2 2 2 2
2 3 5 5 4 2 3 6 7 5 3 3 3 3 2 2 1 1 1 0 0 1 1 0 0 0 0 1 1 1 1 2 2 2 2 2 1 2 2 2 2 1 2 2 2 2 2 2 2
5 5 5 3 3 2 2 8 4 2 2 4 4 3 2 1 1 1 1 1 1 1 1 0 0 0 0 0 1 1 1 2 2 2 2 2 1 2 2 2 2 1 2 2 2 2 2 2 2
4 5 6 3 3 2 4 8 3 1 3 4 4 3 2 1 1 2 2 2 1 1 1 1 1 1 0 0 1 1 1 2 1 2 2 1 2 2 2 2 2 2 2 2 2 2 2 2 2
3 5 6 5 2 3 6 9 6 3 4 5 4 2 2 1 1 2 2 2 2 2 1 1 1 1 0 0 1 1 2 2 1 2 2 2 2 2 2 2 2 2 2 2 2 2 2 2 2
6 7 9 6 3 4 8 11 9 5 4 4 3 2 2 1 2 3 3 2 2 2 2 2 2 1 1 1 1 1 1 1 1 1 2 2 2 2 2 2 2 1 2 1 2 2 3 2 1
6 8 8 5 3 4 7 11 9 6 5 4 3 2 1 1 2 2 3 2 2 1 1 2 2 1 0 1 1 1 1 1 1 2 2 2 2 3 2 2 1 2 2 2 2 2 2 1 1
6 6 6 6 6 5 6 9 8 5 3 1 1 1 2 2 1 1 1 2 2 2 2 2 2 1 1 0 1 1 1 1 1 1 2 2 2 3 2 2 2 2 2 2 2 2 3 2 1
6 3 5 5 4 4 3 7 6 4 3 3 2 1 1 1 1 1 1 1 1 1 2 2 2 3 1 1 1 1 1 2 1 1 2 2 2 2 2 2 2 2 1 2 2 1 1 2 2
3 4 5 6 5 6 5 6 8 3 3 3 2 1 2 1 2 1 1 1 1 1 1 2 2 2 2 2 1 1 1 2 2 2 3 2 2 2 2 2 2 2 1 2 2 1 1 1 2
2 3 4 4 2 6 7 7 6 3 3 2 2 2 2 2 1 1 2 2 2 2 2 2 2 2 2 2 2 2 2 2 2 2 2 2 1 1 2 1 1 1 1 1 2 2 2 1 1
1 0 1 2 3 7 3 5 6 1 1 2 3 3 2 2 1 1 1 1 2 2 2 2 2 2 2 1 2 1 2 2 2 2 2 2 1 1 1 1 1 1 1 1 1 2 2 2 2
3 2 3 4 4 4 2 7 4 1 2 3 3 3 3 2 1 1 1 1 1 1 1 1 1 1 1 1 1 1 2 1 1 1 1 2 1 1 1 1 1 0 0 0 1 1 1 1 2
2 3 2 3 4 5 7 5 3 2 1 1 2 2 2 2 1 0 1 1 0 0 1 1 1 1 1 1 1 1 2 2 1 1 1 1 1 1 1 1 1 0 0 0 0 1 1 1 1
2 2 1 3 3 6 7 6 5 3 3 2 2 2 1 1 1 1 1 1 1 1 1 1 1 1 1 1 1 1 1 1 1 1 1 1 1 1 1 1 1 1 0 0 0 1 1 1 1
4 3 4 3 3 4 6 6 1 2 3 3 2 2 2 1 1 1 1 0 0 0 0 1 1 1 1 1 0 1 0 0 0 0 0 0 1 1 1 1 1 1 1 1 1 1 1 1 1
5 6 6 5 6 5 6 8 1 1 1 2 1 1 2 2 1 1 1 1 0 0 0 1 1 1 1 1 0 1 0 1 0 0 0 0 0 0 1 1 1 1 1 1 1 2 1 2 2
Wind_Direction
301 279 262 254 242 234 244 243 102 82 65 52 35 354 17 34 25 90 110 78 88 103 116 120 109 112 109 109 109 108 108 107 104 101 95 94 92 92 88 84 81 87 92 92 92 91 88 85 81
298 291 268 240 242 242 239 159 88 74 72 70 86 353 45 75 74 95 95 75 94 109 120 121 111 115 113 110 109 110 109 109 108 106 101 97 96 97 93 89 90 91 93 94 92 91 89 87 84
279 267 262 243 243 261 294 71 74 77 84 80 113 47 35 62 80 90 81 85 94 103 109 115 112 116 117 115 111 112 113 114 116 114 110 105 103 101 98 93 91 93 96 94 92 91 89 88 86
274 239 240 251 253 274 320 71 85 96 103 83 83 98 88 55 54 76 87 83 92 95 100 115 115 120 120 118 120 120 124 124 124 119 118 114 109 100 97 96 92 93 94 96 94 94 92 90 86
244 251 239 246 255 267 0 62 109 181 169 154 231 120 92 82 76 83 83 86 97 100 101 119 114 115 120 119 119 122 127 125 124 120 116 115 109 103 99 98 94 96 96 96 96 93 93 90 84
256 253 248 247 254 258 57 32 101 209 194 114 337 131 101 100 82 82 86 96 104 102 104 120 112 114 117 116 116 111 109 111 114 115 106 107 107 100 97 97 98 98 101 97 96 94 91 92 84
274 271 265 270 271 255 66 35 2 307 293 6 325 295 119 97 68 70 88 83 87 91 101 117 128 128 122 113 105 99 101 101 98 99 96 95 96 99 94 95 98 98 101 97 93 95 93 91 87
297 278 262 265 266 286 81 38 352 332 333 20 351 345 99 95 69 63 80 86 87 88 91 101 129 141 145 137 116 110 107 104 97 92 88 88 92 96 96 96 100 103 106 103 98 98 98 95 90
279 260 260 279 287 349 61 0 340 347 357 2 45 34 72 103 107 101 85 73 74 85 87 100 120 145 155 153 146 140 127 116 111 103 101 106 106 109 104 98 102 106 106 106 105 101 101 96 91
251 254 269 338 348 8 356 323 311 274 255 248 183 79 102 121 133 146 159 167 173 129 91 88 120 146 149 154 149 156 148 138 138 127 132 139 110 93 99 98 99 100 99 98 101 102 102 102 107
250 261 300 341 2 356 323 305 299 272 265 265 265 202 137 149 165 188 203 200 214 195 162 137 142 123 125 120 142 144 138 143 149 143 152 138 115 105 102 108 111 108 106 99 102 104 93 89 79
253 283 311 324 353 331 301 296 291 270 283 325 345 171 164 196 208 212 221 208 223 230 182 168 163 149 124 110 145 143 137 144 148 152 156 136 121 121 117 116 121 117 111 109 101 96 90 87 80
251 260 289 313 310 299 292 275 275 268 273 303 330 189 202 211 220 216 200 215 226 249 209 163 165 159 144 124 139 148 150 147 151 139 139 133 131 131 127 123 112 111 106 109 100 88 83 85 77
297 303 285 276 268 278 283 274 262 260 231 235 234 222 217 228 210 197 222 229 258 312 273 281 10 109 145 152 156 166 151 148 145 137 135 135 139 137 137 128 114 107 107 102 100 98 93 92 83
275 268 265 243 235 235 284 270 241 250 221 227 234 231 219 215 188 180 207 237 320 331 338 159 186 117 148 167 171 164 167 143 135 131 131 121 119 124 123 122 120 121 116 110 100 89 87 91 88
247 247 254 217 208 186 227 267 257 212 210 232 231 224 209 190 160 124 90 46 39 11 12 65 58 78 166 178 169 170 155 135 131 123 125 128 138 124 122 123 127 124 119 119 117 108 99 94 92
221 249 259 256 206 203 226 265 278 271 253 258 242 219 201 177 133 90 69 59 52 61 37 118 100 73 347 255 176 161 131 128 130 119 117 129 137 125 120 125 130 130 123 121 119 109 113 106 96
265 273 274 269 247 271 259 268 277 260 254 261 249 217 198 180 146 85 65 55 49 40 34 56 85 83 54 109 122 122 107 108 116 120 122 123 127 121 117 121 128 128 124 121 118 118 111 118 114
301 287 284 293 313 285 269 273 276 264 250 259 251 219 202 184 113 97 79 60 57 39 33 45 46 48 90 124 136 142 145 134 132 136 125 125 125 120 122 123 130 124 126 131 135 133 126 122 119
278 281 285 300 321 299 286 281 279 260 235 234 238 226 185 96 61 79 75 58 41 28 8 36 41 12 143 165 155 168 162 149 141 119 96 116 127 125 128 131 137 137 138 140 140 139 142 144 140
272 273 289 300 312 271 286 280 250 240 211 211 214 114 92 119 96 67 77 60 35 21 2 359 8 10 18 27 119 119 119 112 108 108 103 94 118 119 123 138 138 144 151 162 157 151 154 168 184
274 306 306 303 303 277 235 285 268 227 209 206 190 144 106 111 108 85 77 64 28 2 357 7 17 20 35 50 88 132 153 147 130 114 107 93 90 113 128 135 140 145 147 151 165 156 163 163 182
288 338 300 279 271 281 248 256 273 224 224 214 179 130 90 83 90 85 94 71 43 30 16 11 24 26 20 33 50 122 103 93 96 98 101 94 85 87 96 111 126 141 153 163 163 163 156 165 183
319 315 289 269 259 261 231 226 268 232 228 174 129 113 99 74 71 58 56 51 44 32 22 17 19 19 13 21 44 63 98 108 108 104 108 97 91 85 70 84 115 128 144 170 178 177 175 179 177
220 266 314 281 234 247 214 229 250 264 50 107 120 120 115 102 86 83 75 56 45 35 20 9 17 12 8 29 63 67 68 97 128 134 132 122 111 101 101 81 91 103 141 161 167 176 181 185 183
220 220 208 239 258 282 264 242 243 174 79 83 104 110 105 108 102 97 90 61 28 9 4 14 14 12 18 63 75 69 79 79 77 109 129 144 153 153 126 119 116 113 130 140 161 167 190 188 192
199 226 269 282 288 277 252 242 244 180 127 134 129 115 106 111 122 138 114 76 26 350 352 7 34 19 17 58 77 53 57 71 60 46 105 128 128 136 125 129 118 112 96 134 182 181 193 191 202
250 238 192 209 248 266 266 250 247 227 221 197 184 182 176 167 176 162 141 109 38 353 346 354 24 41 16 73 103 88 48 57 65 52 39 119 134 127 130 128 132 135 135 208 193 230 204 192 209
194 215 220 226 236 248 274 265 279 175 179 195 211 192 181 191 183 173 157 69 33 17 7 350 340 359 15 25 95 96 90 73 64 66 24 37 147 151 151 159 160 175 203 203 198 238 220 210 229
217 212 199 208 237 238 262 268 317 106 131 168 183 181 172 182 207 184 163 169 176 241 278 293 308 327 338 324 165 146 130 109 106 356 339 7 22 149 177 173 177 194 208 210 208 221 226 224 233